Lid_Strength_Index
1 2 2 2 3 3 3 3 4 6 5 4 3 1 1 0 0 1 0 0 1 1 1 1 1 1 -0 -0 -0 -0 -0 -0 -0 0 0 -0 -1 -1
2 2 1 1 1 1 2 2 2 3 5 3 2 1 1 -0 -0 0 -0 0 1 1 1 2 1 1 1 0 0 0 -0 -0 0 0 0 0 0 -0
2 2 2 1 1 1 1 2 2 3 4 3 2 2 2 2 0 1 -0 0 0 1 2 2 2 2 1 1 1 0 0 0 0 0 0 0 0 0
2 2 2 1 2 1 1 2 2 2 3 4 2 2 2 2 1 1 0 -0 0 0 1 2 2 2 2 2 2 2 2 1 1 1 1 1 0 0
1 2 2 2 2 2 2 2 2 1 2 3 3 2 1 2 2 1 1 0 0 1 2 3 3 3 3 4 4 4 4 4 4 3 3 2 2 1
1 1 1 1 2 2 2 2 2 2 2 3 3 3 2 2 1 2 2 1 1 -0 1 2 2 2 3 4 4 4 5 6 6 5 5 5 4 3
2 1 1 1 1 1 1 2 2 2 2 3 3 3 3 3 3 2 3 2 2 1 1 2 2 2 2 3 2 3 4 5 6 7 7 6 6 5
2 2 1 1 1 1 1 1 1 2 3 3 3 4 3 3 2 2 3 3 4 1 1 2 1 1 1 2 3 3 4 4 5 6 7 7 7 6
2 2 2 1 1 1 1 1 2 2 2 3 3 3 3 2 2 3 3 3 3 2 2 3 2 2 1 1 4 4 5 5 6 6 7 7 7 7
1 1 2 2 1 1 1 2 1 1 1 2 2 1 1 1 1 1 2 2 2 1 1 4 2 3 2 1 3 4 5 5 6 7 7 8 9 9
1 1 1 2 2 2 2 2 2 2 1 3 2 3 3 3 2 2 3 3 4 3 1 2 2 2 1 1 1 4 5 7 8 7 7 9 10 10
1 2 2 2 3 3 2 2 3 2 2 2 1 3 3 2 3 1 1 3 3 4 2 3 2 2 4 1 1 3 4 7 9 8 8 9 11 8
2 2 2 3 4 5 5 3 2 1 1 2 2 1 1 2 3 2 1 1 3 3 2 2 4 4 3 3 3 4 4 5 6 8 10 11 11 8
2 2 3 4 5 5 5 4 5 4 3 3 2 2 2 2 2 1 2 1 1 1 1 2 2 3 4 4 4 4 5 5 5 6 7 10 11 11
1 2 3 5 5 6 4 3 3 4 3 3 3 3 3 2 3 3 2 1 0 0 0 0 1 1 2 3 3 4 5 4 5 5 6 7 8 9
2 2 2 3 3 2 2 2 3 1 2 2 3 2 3 3 3 3 3 3 2 2 1 0 0 1 2 2 2 3 4 4 4 4 4 5 6 7
6 5 4 4 4 3 3 2 1 1 2 2 2 2 3 3 3 3 2 3 3 3 3 2 0 0 1 1 3 2 2 3 4 4 4 5 5 6
6 5 5 4 4 4 4 4 3 2 2 2 2 2 3 3 3 3 3 3 3 3 3 2 2 2 2 2 1 2 2 2 2 4 4 4 4 4
7 6 4 4 4 4 4 4 4 2 1 2 2 2 2 2 3 3 3 3 3 3 2 2 2 3 5 6 3 3 2 2 2 4 3 3 3 3
7 6 5 4 4 5 4 3 2 2 2 2 2 2 2 2 3 3 3 3 3 3 3 2 2 3 4 5 4 2 7 2 2 3 3 3 6 6
7 5 4 4 4 3 3 3 2 2 2 3 2 2 2 2 3 3 3 5 4 3 4 3 2 3 1 2 4 3 2 8 5 2 2 4 5 6
6 5 4 4 3 2 2 2 2 2 3 3 3 2 2 2 3 3 3 3 3 3 3 2 2 2 3 3 4 4 3 5 6 7 7 6 5 6
7 6 5 5 4 2 2 2 2 2 2 2 2 3 2 3 2 2 2 3 3 3 3 3 2 3 3 3 4 3 3 5 5 5 6 9 8 7